FENGYUN 1C DEB

Satellite information

Favourite Embed

Satellite Type and Status

DEBRISIN ORBIT

Key statistics

Satellite FENGYUN 1C DEB at a glance.

Uptime

9659

Days in orbit

Revolutions

≈ 14.0

Per day

Orbit

SSO

Sun Synchronous Orbit

Inclination

98.7

Latest

Satellite identification and parameters

Extended collection of information and parameters for FENGYUN 1C DEB.

Object identification

Identified? True

Debris? True

Object name: FENGYUN 1C DEB

International designator: 1999-025XK

Object number (NORAD): 30250

Object ID (CCSDS): 30250

Country: PEOPLES REPUBLIC OF CHINA (PRC)

Current information (Y/N): Y

RCS size: SMALL

Orbital parameters

Period: 102.747 minutes

Inclination: 98.7476 deg

SMA: 7266.757 km

Apoapsis: 939.844 km

Periapsis: 837.4 km

RAAN: 285.1637 deg

Eccentricy: 0.00704884

Argument of periapsis: 20.1415 deg

Mean anomaly: 56.1199 deg

Mean motion: 14.01495893 rev/day

Mean motion (dot): 0.00001027 rev/day2

B* drag term: 0.00069218585 1/REarth

Two-line elements (TLE)

Creation date: Oct. 18, 2025, 2:17 a.m.

Reference frame: TEME

Reference center: EARTH

Epoch: Oct. 17, 2025, 10:37 p.m. UTC

TLE line 0: 0 FENGYUN 1C DEB

TLE line 1: 1 30250U 99025XK 25290.94251304 .00001027 00000-0 69219-3 0 9991

TLE line 2: 2 30250 98.7476 285.1637 0070488 20.1415 56.1199 14.01495893957102

Live tracking on map

Real-time ground track for satellite FENGYUN 1C DEB.

In-orbit conjunctions

A list of the most updated potential collisions computed for object FENGYUN 1C DEB.

Target Orbit TCA Probability of collision Miss distance Type
COSMOS 970 DEB LEO 2025-02-22 13:58:42 0.0001268795 159.0 (m) DEBRIS
THORAD AGENA D R/B LEO 2024-09-26 22:40:29 0.0003658954 72.0 (m) ROCKET BODY
SCOUT A DEB SSO 2024-09-02 00:26:54 0.0002267735 116.0 (m) DEBRIS

Associated space launch

Chinese polar orbiting meteorological satellite

FENGYUN 1C DEB was lifted into orbit during the mission ‘Long March 4B | Feng Yun 1C’, on board a Long March 4B space rocket.

The launch took place on May 10, 1999, 1:33 a.m. from Launch Complex 7.

For more information about the launch, click the button.

Launch to space Long March 4B | Feng Yun 1C
Long March 4B | Feng Yun 1C

Agency: N/A

Status: Launch Successful

Launch date: May 10, 1999, 1:33 a.m. UTC

Rocket: Long March 4B

Launch pad: Launch Complex 7

Location: Taiyuan Satellite Launch Center, People's Republic of China

...

Latest news about this satellite

There are no fresh news available about this satellite. Check back as we update our databases every day.


Newsletter sign-up

Weekly statistics, charts and insights to help you stay on top of the space industry.